Regional Weather Roundup
Issued by NWS

Home | Current Version | Previous Version | Text Only | Print | Product List | Glossary On
Versions: 1 2 3 4 5 6 7 8 9 10 11 12 13 14 15 16 17 18 19 20 21 22 23 24 25 26 27 28 29 30 31 32 33 34 35 36 37 38 39 40 41 42 43 44 45 46 47 48 49 50
000
ASUS43 KMKX 281211
RWRWI

WISCONSIN REGIONAL WEATHER ROUNDUP
NATIONAL WEATHER SERVICE MILWAUKEE/SULLIVAN WI
700 AM CDT MON JUL 28 2014

NOTE: "FAIR" INDICATES FEW OR NO CLOUDS BELOW 12,000 FEET WITH NO
SIGNIFICANT WEATHER AND/OR OBSTRUCTIONS TO VISIBILITY.

WIZ001-002-006>008-014>016-023>028-281300-
NORTHWEST WISCONSIN

CITY           SKY/WX    TMP DP  RH WIND       PRES   REMARKS
SUPERIOR ARPT  CLOUDY    56  55  95 CALM      30.16S
6HR MIN TEMP:  51; 6HR MAX TEMP:  56;

ASHLAND        CLOUDY    55  53  93 SW5       30.15R
6HR MIN TEMP:  50; 6HR MAX TEMP:  55;

HAYWARD        FOG       49  49 100 S3        30.18R VSB 1/2
6HR MIN TEMP:  46; 6HR MAX TEMP:  50;

SIREN          CLOUDY    57  55  95 CALM      30.19R
6HR MIN TEMP:  55; 6HR MAX TEMP:  57;

RICE LAKE      CLOUDY    57  55  94 CALM      30.19R
6HR MIN TEMP:  53; 6HR MAX TEMP:  57;

LADYSMITH      SUNNY     55  53  95 NW7       30.17S
6HR MIN TEMP:  53; 6HR MAX TEMP:  55;

EAU CLAIRE     CLOUDY    58  56  93 CALM      30.16R
6HR MIN TEMP:  56; 6HR MAX TEMP:  59;

MENOMONIE      CLOUDY    58  56  94 CALM      30.18R
6HR MIN TEMP:  55; 6HR MAX TEMP:  58;

NEW RICHMOND   CLOUDY    58  58  97 CALM      30.19R
6HR MIN TEMP:  56; 6HR MAX TEMP:  59;

OSCEOLA          N/A    N/A N/A N/A CALM      30.21R
$$

WIZ003>005-009-010-017-018-281300-
NORTH CENTRAL WISCONSIN

CITY           SKY/WX    TMP DP  RH WIND       PRES   REMARKS
WOODRUFF       CLOUDY    50  48  92 CALM      30.13R
6HR MIN TEMP:  44; 6HR MAX TEMP:  52;

RHINELANDER    PTSUNNY   51  49  92 W5        30.13R
6HR MIN TEMP:  47; 6HR MAX TEMP:  51;

EAGLE RIVER    CLOUDY    50  49  99 CALM      30.12R
6HR MIN TEMP:  44; 6HR MAX TEMP:  50;

LAND O LAKES   CLOUDY    54  50  86 CALM      30.13R
6HR MIN TEMP:  48; 6HR MAX TEMP:  54;

PHILLIPS       MOSUNNY   47  47  99 CALM      30.14S
6HR MIN TEMP:  45; 6HR MAX TEMP:  49;

TOMAHAWK       SUNNY     47  46  97 W3        30.14R
6HR MIN TEMP:  45; 6HR MAX TEMP:  49;

MEDFORD        SUNNY     51  49  95 NW3       30.15R
6HR MIN TEMP:  48; 6HR MAX TEMP:  51;

MERRILL        SUNNY     50  48  95 NW3       30.13R
6HR MIN TEMP:  48; 6HR MAX TEMP:  52;

$$

WIZ029-030-035-036-043>047-281300-
CENTRAL WISCONSIN

CITY           SKY/WX    TMP DP  RH WIND       PRES   REMARKS
WAUSAU         SUNNY     52  49  89 NW7       30.12R
6HR MIN TEMP:  51; 6HR MAX TEMP:  55;

MOSINEE        SUNNY     50  50 100 NW6       30.14R
MARSHFIELD     SUNNY     53  50  89 N10       30.14R
6HR MIN TEMP:  50; 6HR MAX TEMP:  54;

STEVENS POINT  SUNNY     50  47  90 NW5       30.13R
6HR MIN TEMP:  49; 6HR MAX TEMP:  53;

WAUPACA        SUNNY     55  51  87 NW6       30.10S
6HR MIN TEMP:  54; 6HR MAX TEMP:  58;

WAUTOMA        SUNNY     53  51  93 NW6       30.11R
6HR MIN TEMP:  52; 6HR MAX TEMP:  57;

WISC RAPIDS    SUNNY     53  50  89 MISG      30.14R
6HR MIN TEMP:  51; 6HR MAX TEMP:  56;

CAMP DOUGLAS   PTSUNNY   50  50 100 W3        30.14R
$$

WIZ011>013-019>022-031-037>040-048>050-281300-
NORTHEAST WISCONSIN

CITY           SKY/WX    TMP DP  RH WIND       PRES   REMARKS
ANTIGO         SUNNY     49  47  95 NW5       30.12R
6HR MIN TEMP:  47; 6HR MAX TEMP:  51;

STURGEON BAY   SUNNY     52  43  71 N16G24    30.06R
6HR MIN TEMP:  52; 6HR MAX TEMP:  57;

GREEN BAY      SUNNY     53  47  79 N10       30.08R
6HR MIN TEMP:  51; 6HR MAX TEMP:  57;

MANITOWOC      SUNNY     54  46  74 N13G22    30.04R
6HR MIN TEMP:  54; 6HR MAX TEMP:  59;

APPLETON       PTSUNNY   52  48  87 NW9       30.09R
CLINTONVILLE   SUNNY     52  46  82 NW5       30.10R
OSHKOSH        SUNNY     55  48  77 N13       30.08R
6HR MIN TEMP:  54; 6HR MAX TEMP:  59;

$$

WIZ032>034-041-042-053>061-281300-
SOUTHWEST WISCONSIN

CITY           SKY/WX    TMP DP  RH WIND       PRES   REMARKS
LA CROSSE      CLOUDY    59  54  83 N6        30.15R
6HR MIN TEMP:  55; 6HR MAX TEMP:  60;

SPARTA         SUNNY     49  49  98 CALM      30.16R
6HR MIN TEMP:  46; 6HR MAX TEMP:  56;

VIROQUA        FAIR      53  53 100 CALM      30.15R
6HR MIN TEMP:  52; 6HR MAX TEMP:  57;

BOSCOBEL       SUNNY     56  52  86 CALM      30.14R
6HR MIN TEMP:  55; 6HR MAX TEMP:  64;

PRAIRIE DU CHI SUNNY     58  53  83 NW3       30.14R
6HR MIN TEMP:  56; 6HR MAX TEMP:  64;

PLATTEVILLE    FAIR      55  53  91 NW8       30.14R
6HR MIN TEMP:  55; 6HR MAX TEMP:  63;

$$

WIZ056-057-062-063-064-067-068-281300-
SOUTH CENTRAL WISCONSIN

CITY           SKY/WX    TMP DP  RH WIND       PRES   REMARKS
BARABOO/DELLS  SUNNY     53  50  89 NW6       30.12R
6HR MIN TEMP:  52; 6HR MAX TEMP:  59;

LONE ROCK      SUNNY     60  52  74 NW6       30.13R
6HR MIN TEMP:  58; 6HR MAX TEMP:  65;

WATERTOWN      SUNNY     55  49  81 N13G18    30.07R
6HR MIN TEMP:  53; 6HR MAX TEMP:  59;

MADISON        SUNNY     56  51  84 NW10      30.10R
6HR MIN TEMP:  55; 6HR MAX TEMP:  60;

MIDDLETON      FAIR      56  53  89 NW6       30.11R
6HR MIN TEMP:  54; 6HR MAX TEMP:  60;

MONROE         SUNNY     54  52  94 N9        30.10R
JANESVILLE     SUNNY     57  48  72 N13       30.07R
$$

WIZ051-052-058>065-066-070>072-281300-
SOUTHEAST WISCONSIN

CITY           SKY/WX    TMP DP  RH WIND       PRES   REMARKS
MILWAUKEE      MOSUNNY   56  46  69 N13       30.04R
6HR MIN TEMP:  56; 6HR MAX TEMP:  62;

WAUKESHA       NOT AVBL
MILWAUKEE/TIMM SUNNY     54  45  71 N12       30.05R
RACINE         SUNNY     57  47  69 N12       30.04R
6HR MIN TEMP:  56; 6HR MAX TEMP:  62;

BURLINGTON     SUNNY     53  50  90 NW7       30.05R
6HR MIN TEMP:  51; 6HR MAX TEMP:  59;

KENOSHA        SUNNY     56  49  77 NW10      30.03R
6HR MIN TEMP:  55; 6HR MAX TEMP:  62;

FOND DU LAC    SUNNY     55  47  74 N10       30.08R
6HR MIN TEMP:  54; 6HR MAX TEMP:  59;

SHEBOYGAN      SUNNY     53  45  74 N10       30.05R
6HR MIN TEMP:  51; 6HR MAX TEMP:  60;

WEST BEND      SUNNY     54  43  66 N12G28    30.05R
JUNEAU         SUNNY     54  48  81 NW9       30.09R
6HR MIN TEMP:  52; 6HR MAX TEMP:  58;

$$

LSZ147-162-281300-
LAKE SUPERIOR

STATION/POSITION TIME  TEMP    WIND        PRES    WAVE
                       AIR SEA DIR/SP/G            HT/PER
                 (UTC) (F)     (DEG/KT/KT) (MB)    (FT/S)
W MID LAKE BUOY  1150   48 44  270/  6/  8 1019.3R   1
PORT WING        1100   55     170/  4/  6 1021.0
SAXON HARBOR     1100          210/  2/  4 1020.3
$$

LMZ867-665-643>646-281300-
LAKE MICHIGAN

STATION/POSITION TIME  TEMP    WIND        PRES    WAVE
                       AIR SEA DIR/SP/G            HT/PER
                 (UTC) (F)     (DEG/KT/KT) (MB)    (FT/S)
N MID LAKE BUOY  1150   53 54  360/ 21/ 25 1015.6R   4/ 5
NORTHPORT PIER   1100   55     340/ 22/ 25 1016.6R
KEWAUNEE LAKESHO 1100   52     330/  8/ 13 1017.2R
SHEBOYGAN LAKESH 1200   55     330/ 14/ 17 1017.6R
PORT WASHINGTON  1140   56     330/  7/ 12 1017.6R
ATWATER BUOY     1200   57     340/ 17     1017.9R
MILWAUKEE LAKESH 1100   57     320/ 10/ 13   N/A
S MID LAKE BUOY  1150   58 59  340/ 21/ 25 1015.1R   7/ 8
KENOSHA   LAKESH 1200   58     340/ 11/ 14 1016.6R
$$

TC  - TEMPERATURE IN CELSIUS
VSB - VISIBILITY IN STATUTE MILES
WCI - WIND CHILL INDEX
HX  - HEAT INDEX




USA.gov is the U.S. government's official web portal to all federal, state and local government web resources and services.